This is the latest recevied weather packets stored in our database for station/object SV9TNF-1. If no packets are shown the sender has not sent any weather packets the latest 1 day(s).
| Time | Temp. | Humidity | Pressure | Rain* | Wind** | Luminosity | Snow |
|---|---|---|---|---|---|---|---|
| 1778010310 | 17.78° C | 35% | 1005.4 hPa | 0 mm | 9.39 m/s, 245° | - | - |
| 1778010010 | 17.78° C | 37% | 1005.4 hPa | 0 mm | 9.39 m/s, 335° | - | - |
| 1778009710 | 17.22° C | 37% | 1005.4 hPa | 0 mm | 9.83 m/s, 315° | - | - |
| 1778009409 | 17.22° C | 38% | 1005.4 hPa | 0 mm | 8.05 m/s, 279° | - | - |
| 1778009109 | 17.22° C | 39% | 1005.4 hPa | 0 mm | 9.83 m/s, 326° | - | - |
| 1778008809 | 16.67° C | 41% | 1005.4 hPa | 0 mm | 10.73 m/s, 296° | - | - |
| 1778008509 | 17.22° C | 41% | 1005.4 hPa | 0 mm | 8.94 m/s, 295° | - | - |
| 1778008209 | 17.22° C | 39% | 1005.1 hPa | 0 mm | 7.15 m/s, 346° | - | - |
| 1778007909 | 17.22° C | 41% | 1005.1 hPa | 0 mm | 7.15 m/s, 315° | - | - |
| 1778007609 | 17.78° C | 42% | 1005.1 hPa | 0 mm | 8.49 m/s, 326° | - | - |
| 1778007309 | 17.78° C | 43% | 1005.1 hPa | 0 mm | 8.05 m/s, 299° | - | - |
| 1778007009 | 17.22° C | 45% | 1005.1 hPa | 0 mm | 9.83 m/s, 329° | - | - |
| 1778006709 | 17.22° C | 46% | 1005.1 hPa | 0 mm | 8.05 m/s, 327° | - | - |
| 1778006408 | 17.22° C | 45% | 1005.1 hPa | 0 mm | 10.73 m/s, 343° | - | - |
| 1778006108 | 17.78° C | 44% | 1005.1 hPa | 0 mm | 8.94 m/s, 324° | - | - |
| 1778005809 | 17.78° C | 44% | 1005.1 hPa | 0 mm | 8.05 m/s, 306° | - | - |
| 1778005508 | 17.78° C | 46% | 1005.1 hPa | 0 mm | 7.6 m/s, 308° | - | - |
| 1778005208 | 17.78° C | 44% | 1005.1 hPa | 0 mm | 10.28 m/s, 247° | - | - |
| 1778004908 | 17.78° C | 45% | 1005.1 hPa | 0 mm | 8.05 m/s, 303° | - | - |
| 1778004608 | 17.78° C | 45% | 1005.1 hPa | 0 mm | 8.94 m/s, 323° | - | - |
| 1778004308 | 17.78° C | 45% | 1005.1 hPa | 0 mm | 10.28 m/s, 341° | - | - |
| 1778004008 | 17.78° C | 45% | 1005.1 hPa | 0 mm | 10.28 m/s, 226° | - | - |
| 1778003708 | 17.78° C | 45% | 1005.1 hPa | 0 mm | 7.6 m/s, 333° | - | - |
| 1778003407 | 17.78° C | 50% | 1005.1 hPa | 0 mm | 8.94 m/s, 321° | - | - |
| 1778003107 | 17.78° C | 50% | 1005.1 hPa | 0 mm | 8.94 m/s, 254° | - | - |
* Rain latest hour (hover to see other rain measurements)
** Current wind speed in m/s (hover to see current wind gust speed)